Wind_Speed
37 36 36 36 36 36 36 36 36 36 36 35 36 36 36 35 35 34 34 33 33 34 34 34 33 33 34 35 35 35 35 35 35 35 35 35 36 36 36 37 38 38 38
37 37 36 36 36 36 36 36 36 36 36 36 36 36 36 35 34 34 33 34 34 34 34 33 34 34 34 34 35 35 36 36 36 35 35 35 36 37 37 38 39 39 39
38 38 37 37 37 36 37 36 36 36 37 36 36 36 35 35 34 34 34 34 34 33 33 33 34 35 35 35 36 36 36 36 36 36 37 36 36 36 37 39 40 41 41
38 38 37 37 37 37 37 37 36 36 36 36 36 35 35 35 35 35 34 34 33 34 34 35 35 35 36 36 36 37 37 37 37 37 38 38 38 37 37 38 40 40 41
37 37 37 36 37 36 36 36 36 36 36 36 35 35 34 34 34 34 33 34 34 34 35 35 35 36 36 36 37 37 37 37 38 38 39 39 40 40 40 39 39 40 41
36 36 36 35 35 35 35 35 35 35 35 35 35 34 34 34 33 33 33 34 34 34 35 35 35 35 36 37 37 37 38 38 39 40 40 41 41 41 41 40 40 40 41
34 34 34 34 33 33 34 34 34 34 34 34 34 34 34 34 33 33 33 33 34 34 34 35 35 36 37 37 37 38 39 40 40 41 41 42 42 42 42 42 41 41 42
33 33 33 33 33 33 33 33 33 33 33 33 34 34 34 34 33 33 34 34 34 34 34 35 36 37 37 38 39 40 40 41 41 42 42 42 43 43 44 44 44 44 44
33 33 33 33 33 32 32 32 33 33 33 33 34 34 34 34 34 34 34 34 34 34 35 35 36 37 38 39 40 41 41 42 42 42 43 43 44 45 46 46 47 47 47
32 32 32 32 32 32 32 32 32 33 33 33 33 33 34 34 34 34 34 35 35 35 36 36 37 38 39 41 41 42 42 42 43 44 45 46 47 47 48 48 49 50 50
31 31 31 31 31 31 31 32 32 32 32 32 33 34 34 34 34 34 35 35 36 36 36 37 38 40 41 42 43 43 43 44 45 46 47 48 49 49 50 51 52 52 53
30 30 30 31 31 31 31 31 32 32 32 33 33 34 34 34 34 35 35 36 36 37 38 39 40 41 42 43 44 44 44 45 46 48 49 50 51 51 52 53 54 55 56
30 30 31 31 31 31 31 31 32 32 32 33 33 33 34 34 35 36 36 37 37 38 39 40 41 42 43 44 44 45 46 47 48 50 51 52 53 53 54 56 56 57 58
31 31 31 31 31 31 31 32 32 33 33 33 33 33 34 35 36 36 37 38 38 39 40 41 42 43 44 45 46 47 48 49 51 52 53 54 55 56 57 58 59 60 61
31 31 31 31 31 31 31 32 32 33 33 33 34 34 35 35 36 36 37 38 39 40 41 42 43 44 45 47 48 49 50 52 53 54 55 56 57 58 59 60 61 63 64
31 31 31 31 31 31 31 32 32 33 33 34 34 34 35 36 36 37 38 39 40 41 42 44 45 46 47 48 49 51 52 54 55 56 57 58 59 60 62 63 64 65 66
31 31 30 31 31 31 31 31 32 33 33 33 34 35 35 36 37 38 39 40 41 42 44 45 47 48 49 50 51 53 55 56 57 58 59 60 61 63 64 64 65 67 68
31 30 30 30 30 30 31 31 32 33 33 34 34 35 36 37 38 39 40 41 42 43 45 46 47 48 49 51 53 55 56 58 59 60 61 62 63 64 65 66 67 68 69
30 30 29 29 30 30 31 32 32 33 33 34 35 36 37 38 38 39 40 41 43 45 46 47 48 50 52 54 55 57 58 59 60 61 62 63 64 65 67 68 69 68 68
30 30 30 30 30 30 31 32 32 33 33 34 35 36 37 38 39 40 41 43 44 45 47 48 50 52 53 55 57 59 60 61 62 62 63 65 66 67 68 69 69 69 69
30 30 30 30 30 31 31 32 32 32 33 34 35 36 37 38 39 41 42 44 45 47 48 50 52 53 55 57 59 60 62 62 62 63 64 66 67 68 68 69 69 70 70
30 30 31 31 31 31 32 32 32 33 34 35 36 37 38 39 41 42 44 45 47 48 50 52 53 55 57 58 60 62 63 63 64 65 66 67 68 68 68 69 70 70 72
30 31 31 31 31 32 32 33 33 34 35 36 37 38 39 41 42 43 45 47 48 50 52 54 55 56 58 60 61 62 63 65 66 67 67 68 68 68 68 69 70 71 71
31 31 31 32 32 33 33 34 35 36 37 37 38 39 41 42 43 45 47 48 50 52 53 55 56 58 59 60 62 63 65 66 67 68 68 68 68 68 69 69 69 68 68
31 32 32 32 33 34 34 35 36 37 38 38 40 41 42 44 45 47 48 50 52 53 55 56 58 59 60 61 63 65 66 67 68 69 68 68 68 68 67 67 65 64 63
32 32 33 33 34 35 36 37 38 38 39 40 41 43 44 45 47 48 49 51 53 55 56 58 59 60 62 63 65 66 67 68 69 69 68 68 67 66 65 64 63 61 60
Wind_Direction
271 273 274 276 278 279 280 280 281 282 282 283 283 283 284 284 284 284 284 284 284 285 285 286 288 289 289 290 292 293 294 295 295 294 294 294 295 295 294 293 293 292 291
271 273 274 276 277 279 279 280 280 280 281 281 282 283 284 284 283 282 283 283 283 285 285 286 288 289 290 291 293 294 294 295 295 295 294 295 296 296 295 295 294 294 293
272 274 274 275 276 278 279 279 280 280 281 281 281 282 282 282 282 282 282 283 284 284 285 286 287 288 289 291 293 294 295 296 296 296 295 295 295 295 295 296 295 295 294
273 274 275 275 276 277 278 278 279 279 280 280 281 281 281 281 281 282 283 282 283 284 284 286 287 288 289 291 293 294 295 296 297 297 297 297 296 295 295 295 295 295 294
274 275 275 275 276 277 277 277 278 278 279 280 280 280 280 280 281 282 282 282 283 284 285 286 287 289 290 291 293 295 296 297 297 298 297 297 297 297 297 296 295 295 295
274 275 276 276 276 276 276 277 278 278 278 279 279 280 279 280 280 281 281 282 283 285 285 286 288 290 291 293 294 295 296 297 298 298 297 298 298 298 297 297 296 296 295
274 275 276 276 276 276 277 277 278 278 278 278 279 279 279 279 279 280 281 282 283 284 284 286 289 291 292 293 294 295 296 297 297 298 298 298 299 298 298 298 297 297 296
274 275 276 277 277 278 278 278 278 277 277 278 278 278 278 279 279 280 281 282 283 284 285 287 289 291 292 293 294 295 296 297 298 298 298 299 299 299 299 299 298 297 297
274 275 277 277 278 278 278 277 277 277 277 278 278 278 278 279 280 280 282 283 283 284 285 287 289 290 292 293 294 295 296 297 298 298 299 299 300 300 300 300 299 299 298
274 276 277 278 278 278 278 278 277 277 277 277 277 278 279 279 280 281 281 282 283 284 285 286 288 290 292 293 294 295 296 297 298 299 300 300 300 300 300 300 300 300 299
275 276 277 278 279 279 278 278 278 278 278 278 278 279 280 281 281 281 281 282 283 284 286 287 289 291 292 293 294 295 296 297 298 300 301 301 301 301 300 300 300 300 300
275 276 278 279 280 280 279 279 279 279 279 279 280 280 281 281 281 281 282 283 284 285 287 289 290 292 293 294 295 296 296 297 299 300 301 301 301 301 301 301 301 300 300
276 278 280 280 280 279 280 279 279 279 279 280 281 281 281 281 281 281 282 284 286 287 289 290 291 293 294 295 295 296 297 298 299 300 301 301 302 302 302 302 301 301 300
276 278 279 280 280 279 279 279 279 279 280 281 281 281 281 281 282 282 284 286 287 289 290 291 293 294 294 295 295 296 298 299 300 301 301 301 301 302 302 302 301 301 301
276 277 278 279 279 279 279 279 279 280 280 281 281 282 281 281 282 284 285 286 288 289 290 292 293 294 294 295 296 297 298 299 300 301 301 301 302 302 302 302 302 301 301
276 278 279 279 279 279 279 279 280 280 280 281 281 282 282 283 284 285 286 287 289 290 291 292 293 294 294 295 296 298 298 300 300 301 301 301 302 302 302 302 302 302 302
276 277 279 279 278 277 278 279 280 281 281 281 281 281 283 284 284 285 287 288 289 290 291 292 293 294 294 295 297 298 299 300 300 301 301 302 302 302 302 302 302 303 302
275 277 278 278 278 278 278 280 281 281 281 281 281 283 284 285 285 286 287 288 289 290 291 292 293 294 295 296 297 298 299 300 300 300 301 301 302 302 302 302 303 303 303
274 276 277 278 278 278 279 280 281 281 281 282 283 284 284 285 285 286 287 288 289 291 292 293 294 295 296 297 297 298 299 300 300 300 301 302 302 302 303 303 303 303 303
274 275 276 277 278 279 280 281 282 283 283 283 284 284 285 285 286 287 288 289 290 292 293 294 295 296 297 297 298 299 299 300 300 301 301 302 302 303 303 303 303 303 303
273 274 276 277 278 279 280 281 282 283 284 284 285 285 286 287 287 288 289 290 292 293 294 295 296 297 298 298 299 299 300 300 301 301 302 302 303 303 303 303 304 304 304
272 274 275 277 278 280 281 282 282 283 284 285 285 286 287 287 288 290 291 292 293 294 295 296 297 298 299 299 300 300 301 301 301 302 303 303 303 303 303 304 304 304 305
273 274 275 277 279 280 281 282 283 284 285 286 287 288 288 289 290 292 293 294 295 296 296 297 298 299 300 300 300 301 301 301 302 303 303 304 304 304 304 304 305 305 305
273 274 276 277 279 280 282 283 284 286 287 287 288 289 290 291 292 293 294 295 296 297 298 299 300 300 301 301 301 301 302 302 303 304 304 304 304 304 304 305 305 305 305
273 274 276 277 278 280 281 283 285 286 287 288 289 290 292 293 294 295 296 297 298 299 300 300 301 301 301 301 302 302 303 303 304 304 304 305 305 305 305 305 305 305 305
273 274 276 278 279 280 282 284 286 287 288 289 291 292 293 294 295 296 297 299 300 301 301 302 302 302 302 303 303 304 304 305 305 305 305 305 306 306 306 306 306 305 305
Height
5808 5809 5809 5809 5809 5808 5808 5807 5807 5806 5805 5804 5803 5802 5801 5800 5798 5797 5796 5794 5793 5791 5790 5788 5787 5785 5783 5782 5780 5778 5776 5774 5771 5770 5767 5764 5762 5759 5756 5754 5751 5749 5747
5800 5801 5802 5801 5801 5800 5800 5800 5799 5798 5797 5797 5795 5794 5793 5792 5791 5789 5788 5787 5785 5784 5782 5781 5779 5778 5776 5774 5772 5770 5768 5766 5763 5761 5759 5757 5755 5751 5748 5745 5742 5739 5737
5792 5793 5794 5794 5793 5793 5792 5792 5791 5790 5789 5789 5788 5786 5785 5784 5783 5782 5780 5779 5778 5776 5775 5773 5772 5770 5768 5767 5764 5762 5760 5758 5755 5752 5750 5748 5746 5744 5740 5736 5733 5730 5727
5784 5785 5785 5785 5785 5785 5784 5784 5783 5782 5781 5781 5780 5779 5778 5777 5776 5774 5773 5771 5770 5769 5767 5766 5764 5762 5761 5758 5756 5754 5752 5749 5747 5744 5741 5739 5736 5734 5732 5728 5724 5720 5717
5776 5776 5777 5777 5777 5777 5776 5775 5775 5774 5773 5773 5772 5771 5770 5769 5768 5767 5765 5764 5762 5761 5760 5758 5756 5754 5752 5750 5748 5745 5743 5740 5738 5735 5732 5729 5726 5723 5721 5719 5715 5711 5707
5768 5768 5768 5769 5769 5768 5768 5767 5767 5766 5765 5764 5764 5763 5762 5761 5760 5759 5758 5756 5755 5754 5752 5750 5748 5746 5744 5742 5739 5737 5734 5732 5729 5726 5723 5720 5717 5713 5710 5708 5705 5702 5698
5760 5760 5760 5760 5760 5760 5759 5759 5758 5758 5757 5756 5756 5755 5754 5753 5752 5751 5750 5749 5747 5746 5744 5742 5740 5738 5736 5733 5731 5728 5726 5722 5719 5716 5713 5710 5706 5703 5700 5697 5694 5691 5688
5752 5752 5752 5752 5752 5752 5751 5751 5750 5750 5749 5748 5748 5747 5746 5745 5744 5743 5742 5741 5739 5738 5736 5734 5732 5730 5727 5725 5722 5720 5716 5713 5710 5706 5703 5699 5696 5692 5688 5685 5682 5680 5677
5744 5744 5744 5744 5744 5744 5743 5743 5743 5742 5741 5741 5740 5739 5738 5737 5736 5735 5734 5733 5731 5729 5727 5725 5724 5721 5719 5716 5713 5710 5707 5704 5700 5696 5693 5689 5685 5681 5677 5673 5669 5667 5664
5736 5736 5736 5736 5736 5736 5735 5735 5735 5734 5733 5733 5732 5731 5730 5729 5728 5727 5726 5724 5722 5721 5719 5717 5715 5712 5710 5707 5704 5701 5697 5694 5690 5686 5683 5678 5674 5670 5666 5661 5657 5653 5649
5728 5728 5728 5728 5728 5728 5727 5727 5726 5726 5725 5725 5724 5723 5722 5721 5720 5719 5717 5716 5714 5712 5710 5708 5706 5703 5700 5697 5694 5691 5687 5684 5680 5676 5672 5667 5663 5658 5653 5649 5644 5639 5634
5720 5720 5720 5720 5720 5720 5719 5719 5718 5718 5717 5717 5716 5715 5714 5713 5711 5710 5708 5707 5705 5703 5701 5699 5696 5694 5690 5687 5684 5680 5677 5673 5669 5665 5660 5655 5650 5646 5641 5636 5630 5625 5620
5712 5713 5713 5712 5712 5712 5711 5711 5711 5710 5709 5708 5708 5707 5705 5704 5703 5701 5700 5698 5696 5694 5692 5689 5687 5684 5680 5677 5673 5670 5666 5662 5658 5653 5648 5643 5637 5632 5627 5622 5616 5611 5605
5705 5705 5705 5704 5704 5704 5703 5703 5702 5702 5701 5700 5699 5698 5697 5695 5694 5693 5691 5689 5687 5685 5682 5679 5677 5673 5670 5666 5662 5659 5655 5650 5646 5641 5635 5629 5624 5618 5613 5607 5601 5595 5589
5696 5696 5696 5696 5696 5695 5695 5694 5694 5693 5692 5691 5690 5689 5688 5686 5685 5683 5682 5680 5677 5675 5672 5669 5666 5663 5659 5655 5651 5647 5643 5638 5633 5628 5622 5616 5610 5604 5598 5592 5586 5579 5573
5688 5688 5688 5688 5687 5687 5686 5686 5685 5684 5683 5682 5681 5680 5679 5677 5676 5674 5672 5670 5667 5665 5662 5659 5655 5652 5648 5644 5639 5635 5630 5625 5620 5614 5608 5602 5596 5589 5582 5576 5569 5562 5555
5679 5679 5680 5679 5679 5678 5678 5677 5676 5676 5674 5673 5672 5671 5669 5668 5666 5664 5662 5660 5657 5654 5651 5648 5644 5640 5636 5632 5627 5622 5617 5612 5606 5600 5594 5588 5580 5573 5566 5560 5553 5545 5536
5671 5671 5671 5670 5670 5669 5669 5668 5667 5666 5665 5664 5663 5662 5660 5658 5656 5654 5652 5649 5646 5643 5640 5636 5633 5628 5624 5619 5614 5609 5604 5598 5592 5585 5579 5572 5565 5557 5549 5543 5536 5528 5520
5662 5662 5662 5662 5661 5661 5660 5659 5658 5657 5656 5655 5654 5652 5650 5648 5646 5644 5641 5639 5636 5632 5629 5625 5621 5616 5611 5606 5600 5595 5589 5583 5577 5570 5563 5556 5549 5541 5532 5525 5519 5512 5503
5654 5654 5654 5653 5653 5652 5651 5650 5650 5648 5647 5646 5644 5642 5640 5638 5636 5633 5631 5628 5624 5621 5617 5613 5608 5603 5598 5592 5586 5580 5574 5569 5563 5556 5548 5540 5532 5524 5515 5507 5499 5492 5485
5645 5645 5645 5645 5644 5643 5642 5641 5640 5639 5638 5636 5634 5632 5630 5628 5625 5623 5620 5616 5613 5609 5605 5601 5596 5590 5584 5578 5571 5565 5558 5552 5546 5540 5532 5524 5515 5507 5498 5489 5480 5473 5465
5636 5636 5636 5636 5635 5634 5633 5632 5631 5630 5628 5626 5624 5622 5620 5617 5615 5612 5608 5605 5601 5597 5592 5587 5582 5576 5570 5563 5556 5549 5542 5535 5529 5523 5515 5507 5498 5489 5481 5471 5463 5454 5445
5627 5627 5627 5627 5626 5625 5624 5623 5622 5620 5618 5616 5614 5612 5609 5606 5603 5600 5596 5592 5588 5584 5579 5574 5568 5562 5555 5548 5541 5533 5526 5518 5511 5505 5497 5489 5480 5472 5463 5454 5445 5436 5427
5618 5618 5618 5617 5617 5616 5615 5614 5612 5610 5608 5606 5604 5601 5598 5595 5592 5588 5584 5580 5575 5570 5565 5559 5553 5547 5540 5533 5525 5517 5510 5502 5494 5487 5480 5471 5463 5454 5445 5437 5428 5419 5410
5609 5609 5609 5608 5607 5606 5605 5604 5602 5600 5598 5595 5593 5590 5587 5583 5580 5576 5571 5567 5562 5556 5550 5544 5538 5531 5525 5517 5509 5501 5493 5485 5476 5468 5461 5453 5444 5436 5428 5419 5411 5403 5394
5600 5599 5599 5598 5597 5596 5595 5593 5591 5589 5587 5584 5581 5578 5575 5571 5567 5563 5559 5553 5548 5542 5535 5528 5522 5515 5508 5500 5492 5483 5475 5466 5457 5449 5442 5434 5425 5417 5409 5402 5394 5387 5379